TimeCDT,TemperatureF,Dew PointF,Humidity,Sea Level PressureIn,VisibilityMPH,Wind Direction,Wind SpeedMPH,Gust SpeedMPH,PrecipitationIn,Events,Conditions,WindDirDegrees,DateUTC
6:15 AM,30.2,24.8,80,29.86,10.0,West,13.8,-,N/A,,Overcast,260,2012-10-10 11:15:00
6:35 AM,30.2,26.6,86,29.86,7.0,West,13.8,-,N/A,,Overcast,260,2012-10-10 11:35:00
6:55 AM,30.2,24.8,80,29.86,10.0,West,15.0,20.7,N/A,,Overcast,270,2012-10-10 11:55:00
7:15 AM,30.2,24.8,80,29.87,10.0,West,12.7,20.7,N/A,,Mostly Cloudy,270,2012-10-10 12:15:00
7:35 AM,30.2,24.8,80,29.89,10.0,West,15.0,-,N/A,,Mostly Cloudy,270,2012-10-10 12:35:00
7:55 AM,30.2,24.8,80,29.89,10.0,West,15.0,-,N/A,,Overcast,260,2012-10-10 12:55:00
8:15 AM,32.0,24.8,75,29.89,10.0,West,15.0,-,N/A,,Overcast,260,2012-10-10 13:15:00
8:35 AM,32.0,24.8,75,29.90,10.0,West,13.8,-,N/A,,Overcast,260,2012-10-10 13:35:00
8:55 AM,32.0,24.8,75,29.90,10.0,West,15.0,19.6,N/A,,Mostly Cloudy,270,2012-10-10 13:55:00
9:15 AM,33.8,24.8,70,29.91,10.0,West,12.7,-,N/A,,Overcast,260,2012-10-10 14:15:00
9:35 AM,33.8,24.8,70,29.92,10.0,West,12.7,19.6,N/A,,Overcast,260,2012-10-10 14:35:00
9:55 AM,33.8,24.8,70,29.92,10.0,West,12.7,-,N/A,,Overcast,280,2012-10-10 14:55:00
10:15 AM,33.8,24.8,70,29.93,10.0,West,10.4,-,N/A,,Mostly Cloudy,270,2012-10-10 15:15:00
10:35 AM,33.8,23.0,65,29.94,10.0,West,9.2,-,N/A,,Overcast,280,2012-10-10 15:35:00
10:55 AM,35.6,21.2,56,29.94,10.0,WNW,15.0,21.9,N/A,,Mostly Cloudy,290,2012-10-10 15:55:00
11:15 AM,37.4,19.4,48,29.95,10.0,NW,13.8,23.0,N/A,,Mostly Cloudy,310,2012-10-10 16:15:00
11:55 AM,37.4,23.0,56,29.95,10.0,WNW,20.7,26.5,N/A,,Mostly Cloudy,300,2012-10-10 16:55:00
12:15 PM,39.2,21.2,49,29.96,10.0,NW,17.3,24.2,N/A,,Partly Cloudy,310,2012-10-10 17:15:00
12:35 PM,39.2,19.4,45,29.96,10.0,WNW,19.6,23.0,N/A,,Scattered Clouds,300,2012-10-10 17:35:00
12:55 PM,39.2,21.2,49,29.96,10.0,WNW,16.1,21.9,N/A,,Scattered Clouds,300,2012-10-10 17:55:00
1:15 PM,39.2,21.2,49,29.95,10.0,WNW,13.8,23.0,N/A,,Mostly Cloudy,300,2012-10-10 18:15:00
1:35 PM,41.0,19.4,42,29.95,10.0,NW,17.3,23.0,N/A,,Overcast,310,2012-10-10 18:35:00
1:55 PM,39.2,19.4,45,29.94,10.0,WNW,11.5,16.1,N/A,,Mostly Cloudy,300,2012-10-10 18:55:00
2:15 PM,39.2,19.4,45,29.95,10.0,WNW,10.4,-,N/A,,Mostly Cloudy,290,2012-10-10 19:15:00
2:35 PM,39.2,21.2,49,29.95,10.0,WNW,15.0,19.6,N/A,,Overcast,290,2012-10-10 19:35:00
2:55 PM,41.0,21.2,45,29.95,10.0,West,11.5,16.1,N/A,,Overcast,270,2012-10-10 19:55:00
3:15 PM,42.8,19.4,39,29.95,10.0,WNW,10.4,-,N/A,,Overcast,290,2012-10-10 20:15:00
3:35 PM,42.8,19.4,39,29.94,10.0,WNW,9.2,-,N/A,,Mostly Cloudy,290,2012-10-10 20:35:00
3:55 PM,42.8,19.4,39,29.94,10.0,WNW,11.5,-,N/A,,Overcast,300,2012-10-10 20:55:00
4:15 PM,42.8,19.4,39,29.94,10.0,West,12.7,-,N/A,,Overcast,280,2012-10-10 21:15:00
4:35 PM,42.8,19.4,39,29.93,10.0,WNW,6.9,-,N/A,,Overcast,300,2012-10-10 21:35:00
4:55 PM,42.8,19.4,39,29.94,10.0,West,8.1,-,N/A,,Overcast,280,2012-10-10 21:55:00
5:15 PM,42.8,21.2,42,29.94,10.0,West,9.2,-,N/A,,Overcast,270,2012-10-10 22:15:00
5:35 PM,42.8,21.2,42,29.94,10.0,West,6.9,-,N/A,,Overcast,270,2012-10-10 22:35:00
5:55 PM,41.0,21.2,45,29.94,10.0,WSW,8.1,-,N/A,,Mostly Cloudy,250,2012-10-10 22:55:00
6:15 PM,39.2,21.2,49,29.94,10.0,Calm,Calm,-,N/A,,Clear,0,2012-10-10 23:15:00
6:35 PM,39.2,21.2,49,29.94,10.0,Calm,Calm,-,N/A,,Mostly Cloudy,0,2012-10-10 23:35:00
6:55 PM,35.6,23.0,60,29.94,10.0,Calm,Calm,-,N/A,,Partly Cloudy,0,2012-10-10 23:55:00
7:15 PM,35.6,23.0,60,29.94,10.0,Calm,Calm,-,N/A,,Clear,0,2012-10-11 00:15:00
7:35 PM,35.6,21.2,56,29.94,10.0,Calm,Calm,-,N/A,,Clear,0,2012-10-11 00:35:00
7:55 PM,33.8,24.8,70,29.95,10.0,Calm,Calm,-,N/A,,Mostly Cloudy,0,2012-10-11 00:55:00
8:15 PM,33.8,23.0,65,29.94,10.0,Calm,Calm,-,N/A,,Mostly Cloudy,0,2012-10-11 01:15:00
8:35 PM,35.6,24.8,65,29.94,10.0,Calm,Calm,-,N/A,,Overcast,0,2012-10-11 01:35:00
8:55 PM,35.6,24.8,65,29.94,10.0,Calm,Calm,-,N/A,,Overcast,0,2012-10-11 01:55:00
9:15 PM,35.6,23.0,60,29.94,10.0,Calm,Calm,-,N/A,,Overcast,0,2012-10-11 02:15:00
9:35 PM,39.2,24.8,56,29.94,10.0,SW,8.1,-,N/A,,Overcast,220,2012-10-11 02:35:00
9:55 PM,41.0,24.8,53,29.93,10.0,SW,6.9,-,N/A,,Overcast,230,2012-10-11 02:55:00
10:15 PM,42.8,24.8,49,29.93,10.0,SSW,10.4,16.1,N/A,,Overcast,210,2012-10-11 03:15:00
10:55 PM,42.8,26.6,53,29.92,10.0,West,15.0,18.4,N/A,,Overcast,260,2012-10-11 03:55:00
11:15 PM,41.0,26.6,57,29.92,10.0,WSW,12.7,20.7,N/A,,Overcast,250,2012-10-11 04:15:00
11:35 PM,39.2,28.4,65,29.92,10.0,WSW,12.7,-,N/A,,Overcast,240,2012-10-11 04:35:00
11:55 PM,39.2,28.4,65,29.92,10.0,WSW,13.8,-,N/A,,Overcast,240,2012-10-11 04:55:00